1504267200.93,37733,25.31,74192.8,23.27,-0.77,-4.49,0,*73
1504267202.13,37734,25.31,74192.3,23.27,-0.41,-4.61,0,*7B
1504267203.34,37735,25.31,74194.0,23.27,-0.77,-5.11,0,*79
1504267204.61,37736,25.31,74196.3,23.25,-0.23,-4.85,0,*75
1504267205.8,37737,25.31,74194.5,23.23,-0.73,-5.35,0,*7D
1504267207.01,37738,25.31,74194.3,23.23,-0.15,-4.77,0,*75
1504267208.22,37739,25.31,74192.3,23.21,0.09,-4.45,0,*67
1504267209.47,37740,25.31,74192.8,23.21,-0.69,-5.07,0,*75
1504267210.7,37741,25.31,74194.0,23.21,-0.19,-4.21,0,*76
1504267211.93,37742,25.31,74194.8,23.21,-1.17,-4.61,0,*4E
1504267213.15,37743,25.31,74192.8,23.19,-1.05,-4.09,0,*49
1504267214.39,37744,25.31,74194.5,23.15,-0.97,-3.39,0,*7C
1504267215.63,37745,25.31,74198.3,23.17,-0.37,-2.71,0,*78
1504267216.85,37746,25.31,74196.0,23.17,-0.69,-2.95,0,*7A
1504267218.12,37747,25.31,74194.3,23.15,-1.83,-3.59,0,*4D
1504267219.33,37748,25.31,74192.5,23.15,-1.63,-3.07,0,*47
1504267220.57,37749,25.31,74190.5,23.11,-2.07,-3.19,0,*4C
1504267221.76,37750,25.31,74192.5,23.09,-2.15,-3.03,0,*45
1504267222.99,37751,25.31,74192.5,23.07,-2.47,-3.19,0,*46
1504267224.17,37752,25.31,74192.3,23.05,-0.61,-1.25,0,*7C
1504267225.39,37753,25.31,74192.3,23.05,-0.73,-1.09,0,*70
1504267226.6,37754,25.31,74192.5,23.05,-0.85,-1.25,0,*70
1504267227.8,37755,25.31,74194.5,23.05,-0.27,-0.65,0,*4C
1504267228.99,37756,25.31,74198.0,23.05,-0.77,-1.25,0,*7F
1504267230.2,37757,25.31,74196.3,23.01,-0.41,-1.05,0,*7D
1504267231.41,37758,25.31,74196.8,23.03,-0.65,-1.51,0,*77
1504267232.61,37759,25.31,74194.3,23.01,0.83,-0.69,0,*6B
1504267233.79,37760,25.31,74196.0,23.01,0.43,-1.67,0,*52
1504267235.0,37761,25.31,74198.5,23.01,1.29,-1.25,0,*68
1504267236.23,37762,25.31,74198.8,23.03,1.59,-1.21,0,*6A
1504267237.44,37763,25.31,74196.3,23.03,2.31,-0.73,0,*50
1504267238.68,37764,25.31,74198.5,23.07,1.05,-2.55,0,*61
1504267239.87,37765,25.31,74200.0,23.09,-0.15,-4.21,0,*76
1504267241.11,37766,25.31,74196.8,23.11,-0.65,-5.07,0,*7E
1504267242.36,37767,25.31,74196.0,23.15,-1.21,-5.93,0,*47
1504267243.58,37768,25.31,74196.0,23.17,-2.79,-7.49,0,*41
1504267244.84,37769,25.31,74198.5,23.17,-4.77,-9.41,0,*4E
1504267246.1,37770,25.31,74192.8,23.21,-5.65,-10.15,0,*78
1504267247.31,37771,25.31,74192.5,23.19,-6.77,-10.89,0,*77
1504267248.56,37772,25.31,74196.3,23.21,-7.23,-11.29,0,*74
1504267249.79,37773,25.31,74196.3,23.21,-9.23,-13.23,0,*73
1504267251.02,37774,25.31,74194.5,23.19,-9.49,-13.51,0,*76
1504267252.29,37775,25.31,74194.8,23.21,-8.81,-12.57,0,*7E
1504267253.51,37776,25.31,74194.8,23.19,-9.53,-13.11,0,*7B
1504267254.78,37777,25.31,74192.3,23.21,-8.85,-11.93,0,*73
1504267256.01,37778,25.31,74196.0,23.23,-10.27,-13.33,0,*47
1504267257.24,37779,25.31,74194.0,23.23,-9.01,-11.51,0,*7C
1504267258.49,37780,25.31,74194.3,23.25,-9.67,-12.07,0,*7C
1504267259.74,37781,25.31,74194.5,23.25,-9.79,-11.73,0,*72
1504267260.99,37782,25.31,74196.3,23.29,-9.49,-11.01,0,*7B
1504267262.22,37783,25.31,74194.5,23.29,-9.67,-10.97,0,*78
1504267263.48,37784,25.31,74196.0,23.37,-10.35,-11.33,0,*40
1504267264.74,37785,25.31,74196.3,23.37,-11.85,-12.47,0,*4B
1504267266.02,37786,25.31,74198.5,23.33,-11.55,-11.97,0,*4F
1504267267.25,37787,25.31,74192.0,23.39,-11.55,-12.03,0,*4A
1504267268.51,37788,25.31,74192.3,23.37,-11.23,-11.77,0,*4A
1504267269.71,37789,25.31,74196.0,23.39,-10.19,-10.85,0,*41
1504267270.92,37790,25.31,74192.0,23.39,-11.45,-12.43,0,*49
1504267272.15,37791,25.31,74194.3,23.39,-11.89,-12.97,0,*41
1504267273.4,37792,25.31,74192.8,23.41,-11.85,-13.07,0,*49
1504267274.61,37793,25.31,74196.5,23.39,-11.41,-12.43,0,*4E
1504267275.86,37794,25.31,74198.0,23.39,-11.97,-13.01,0,*45
1504267277.11,37795,25.31,74198.8,23.37,-13.15,-14.01,0,*45
1504267278.36,37796,25.31,74192.3,23.37,-12.93,-13.79,0,*41
1504267279.65,37797,25.31,74192.8,23.37,-13.33,-14.05,0,*47
1504267280.91,37798,25.31,74192.5,23.37,-11.77,-12.47,0,*4A
1504267282.17,37799,25.31,74194.3,23.37,-11.23,-12.07,0,*4E
1504267283.39,37800,25.31,74194.3,23.39,-11.19,-11.73,0,*46
1504267284.65,37801,25.31,74190.5,23.39,-11.97,-12.71,0,*40
1504267285.91,37802,25.31,74194.0,23.39,-12.11,-12.71,0,*4E
1504267287.12,37803,25.31,74194.5,23.39,-12.43,-12.97,0,*40
1504267288.37,37804,25.31,74192.3,23.41,-11.97,-12.39,0,*46
1504267289.6,37805,25.31,74192.5,23.43,-12.07,-12.47,0,*46
1504267290.82,37806,25.31,74194.3,23.43,-12.65,-12.93,0,*48
1504267292.01,37807,25.31,74194.8,23.43,-13.11,-13.47,0,*43
1504267293.24,37808,25.31,74196.0,23.43,-13.37,-13.51,0,*4F
1504267294.47,37809,25.31,74192.0,23.41,-14.19,-14.19,0,*4C
1504267295.71,37810,25.31,74194.5,23.37,-15.63,-15.95,0,*4C
1504267296.99,37811,25.31,74196.5,23.37,-15.35,-15.57,0,*40
1504267298.23,37812,25.31,74198.0,23.31,-14.05,-14.61,0,*43
1504267299.44,37813,25.31,74196.8,23.31,-13.23,-14.11,0,*46
1504267300.67,37814,25.31,74196.3,23.31,-10.93,-11.93,0,*46
1504267301.91,37815,25.31,74192.0,23.31,-10.31,-11.55,0,*45
1504267303.15,37816,25.31,74194.3,23.33,-9.61,-10.97,0,*76
1504267304.38,37817,25.31,74194.8,23.33,-9.79,-11.15,0,*75
1504267305.57,37818,25.31,74194.8,23.39,-9.89,-11.41,0,*7E
1504267306.8,37819,25.31,74198.5,23.41,-10.31,-12.21,0,*4E
1504267308.03,37820,25.31,74192.0,23.41,-10.31,-12.21,0,*44
1504267309.26,37821,25.31,74198.0,23.43,-10.41,-12.39,0,*49
1504267310.45,37822,25.31,74194.8,23.43,-10.53,-12.47,0,*40
1504267311.65,37823,25.31,74196.0,23.43,-11.15,-13.11,0,*40
1504267312.9,37824,25.31,74198.5,23.45,-10.53,-12.61,0,*44
1504267314.1,37825,25.31,74196.3,23.47,-10.31,-12.39,0,*4E
1504267315.33,37826,25.31,74198.3,23.47,-10.35,-12.61,0,*44
1504267316.52,37827,25.31,74192.3,23.47,-11.19,-13.43,0,*4B
1504267317.75,37828,25.31,74192.0,23.49,-12.47,-14.79,0,*4C
1504267319.02,37829,25.31,74198.8,23.45,-11.77,-13.87,0,*47
1504267320.27,37830,25.31,74196.8,23.45,-10.93,-13.01,0,*4A
1504267321.5,37831,25.31,74194.5,23.45,-10.93,-12.89,0,*4A
1504267322.74,37832,25.31,74194.3,23.49,-11.01,-12.79,0,*40
1504267323.98,37833,25.31,74196.3,23.51,-10.89,-12.65,0,*44
1504267325.23,37834,25.31,74194.3,23.51,-10.85,-12.57,0,*4E
1504267326.51,37835,25.31,74198.3,23.51,-11.63,-13.33,0,*45
1504267327.77,37836,25.31,74196.0,23.53,-11.07,-12.61,0,*40
1504267329.0,37837,25.31,74194.8,23.53,-10.79,-12.43,0,*49
1504267330.25,37838,25.31,74194.3,23.55,-11.73,-13.11,0,*4D
1504267331.49,37839,25.31,74196.0,23.55,-11.73,-13.15,0,*48
1504267332.75,37840,25.31,74196.0,23.55,-11.45,-12.75,0,*44
1504267333.98,37841,25.31,74190.8,23.57,-11.63,-12.97,0,*4F
1504267335.18,37842,25.31,74198.3,23.61,-11.11,-12.25,0,*45
1504267336.43,37843,25.31,74192.8,23.57,-10.63,-11.77,0,*41
1504267337.66,37844,25.31,74192.8,23.61,-11.01,-12.11,0,*45
1504267338.91,37845,25.31,74196.5,23.65,-11.77,-13.01,0,*41
1504267340.16,37846,25.31,74198.0,23.63,-11.81,-12.89,0,*4C
1504267341.38,37847,25.31,74198.0,23.65,-12.89,-14.01,0,*46
1504267342.58,37848,25.31,74198.5,23.65,-12.43,-13.43,0,*4E
1504267343.79,37849,25.31,74192.8,23.65,-12.61,-13.73,0,*4C
1504267345.04,37850,25.31,74196.3,23.67,-11.89,-12.97,0,*48
1504267346.3,37851,25.31,74196.5,23.65,-11.73,-12.71,0,*46
1504267347.52,37852,25.31,74198.0,23.65,-12.43,-13.33,0,*42
1504267348.77,37853,25.31,74198.0,23.67,-12.11,-12.93,0,*4D
1504267350.0,37854,25.31,74192.8,23.67,-13.43,-14.29,0,*4B
1504267351.21,37855,25.31,74198.8,23.67,-12.89,-13.69,0,*4E
1504267352.49,37856,25.31,74196.3,23.67,-11.85,-12.61,0,*4B
1504267353.71,37857,25.31,74194.8,23.67,-12.03,-12.97,0,*4E
1504267354.97,37858,25.31,74194.3,23.69,-12.07,-12.83,0,*4E
1504267356.17,37859,25.31,74196.0,23.69,-12.25,-13.07,0,*42
1504267357.38,37860,25.31,74194.0,23.69,-12.25,-13.11,0,*4F
1504267358.61,37861,25.31,74196.5,23.71,-12.39,-13.19,0,*42
1504267359.89,37862,25.31,74192.8,23.71,-11.67,-12.53,0,*46
1504267361.1,37863,25.31,74194.3,23.73,-12.21,-13.11,0,*43
1504267362.29,37864,25.31,74192.3,23.73,-12.43,-13.47,0,*43
1504267363.49,37865,25.31,74192.0,23.73,-13.15,-14.15,0,*40
1504267364.7,37866,25.31,74190.3,23.71,-12.39,-13.47,0,*4E
1504267365.98,37867,25.31,74192.5,23.71,-13.37,-14.51,0,*40
1504267367.24,37868,25.31,74188.3,23.71,-14.19,-15.39,0,*4B
1504267368.47,37869,25.31,74192.5,23.69,-13.65,-14.83,0,*4F
1504267369.75,37870,25.31,74188.5,23.67,-12.71,-13.87,0,*4E
1504267370.97,37871,25.31,74192.8,23.67,-12.47,-13.73,0,*41
1504267372.22,37872,25.31,74188.8,23.67,-11.41,-12.61,0,*45
1504267373.5,37873,25.31,74194.3,23.67,-11.33,-12.71,0,*40
1504267374.74,37874,25.31,74192.8,23.69,-11.45,-12.79,0,*40
1504267376.0,37875,25.31,74192.8,23.69,-11.29,-12.65,0,*46
1504267377.24,37876,25.31,74192.5,23.67,-10.49,-11.85,0,*41
1504267378.45,37877,25.31,74192.3,23.69,-12.29,-13.93,0,*4F
1504267379.67,37878,25.31,74188.8,23.69,-11.97,-13.69,0,*43
1504267380.9,37879,25.31,74192.3,23.69,-11.23,-12.79,0,*4D
1504267382.14,37880,25.31,74192.3,23.69,-11.11,-12.79,0,*4A
1504267383.39,37881,25.31,74192.8,23.69,-10.41,-12.07,0,*46
1504267384.64,37882,25.31,74188.3,23.69,-10.97,-12.71,0,*4F
1504267385.87,37883,25.31,74192.0,23.73,-11.07,-12.89,0,*4A
1504267387.14,37884,25.31,74194.0,23.71,-11.77,-13.61,0,*4F
1504267388.37,37885,25.31,74188.8,23.73,-12.61,-14.61,0,*4F
1504267389.6,37886,25.31,74192.8,23.71,-12.21,-14.19,0,*45
1504267390.85,37887,25.31,74194.8,23.71,-12.03,-14.01,0,*4D
1504267392.1,37888,25.31,74194.5,23.69,-12.11,-14.05,0,*4C
1504267393.38,37889,25.31,74194.5,23.67,-11.85,-14.01,0,*49
1504267394.62,37890,25.31,74190.5,23.67,-11.33,-13.47,0,*49
1504267395.87,37891,25.31,74190.5,23.67,-11.97,-14.19,0,*4A
1504267397.1,37892,25.38,74192.5,23.65,-12.29,-14.55,0,*45
1504267398.32,37893,25.31,74190.8,23.65,-12.11,-14.29,0,*44
1504267399.6,37894,25.31,74188.5,23.63,-11.81,-14.01,0,*45
1504267400.8,37895,25.31,74190.0,23.65,-11.01,-13.15,0,*48
1504267402.06,37896,25.31,74192.5,23.63,-11.51,-13.79,0,*42
1504267403.32,37897,25.31,74192.0,23.63,-12.53,-14.89,0,*4A
1504267404.54,37898,25.31,74194.5,23.61,-12.39,-14.55,0,*4A
1504267405.77,37899,25.31,74190.3,23.57,-11.15,-13.37,0,*40
1504267406.99,37900,25.31,74194.3,23.61,-10.71,-13.11,0,*43
1504267408.21,37901,25.31,74190.5,23.57,-11.73,-14.11,0,*43
1504267409.43,37902,25.38,74196.5,23.57,-12.57,-15.11,0,*44
1504267410.66,37903,25.38,74194.5,23.57,-13.43,-16.17,0,*44
1504267411.92,37904,25.38,74192.8,23.53,-14.01,-16.69,0,*4F
1504267413.15,37905,25.31,74192.0,23.51,-13.69,-16.41,0,*4F
1504267414.36,37906,25.31,74194.5,23.49,-12.97,-15.71,0,*45
1504267415.57,37907,25.38,74196.3,23.47,-14.11,-16.89,0,*46
1504267416.82,37908,25.31,74190.5,23.45,-13.47,-16.09,0,*47
1504267418.07,37909,25.31,74194.8,23.43,-12.79,-15.35,0,*40
1504267419.27,37910,25.31,74196.3,23.43,-10.85,-13.51,0,*4D
1504267420.55,37911,25.31,74192.0,23.45,-11.77,-14.51,0,*41
1504267421.79,37912,25.31,74190.3,23.43,-12.83,-16.13,0,*48
1504267423.04,37913,25.38,74196.8,23.41,-12.39,-15.35,0,*4D
1504267424.29,37914,25.38,74196.3,23.41,-12.39,-15.35,0,*4A
1504267425.55,37915,25.31,74188.5,23.41,-11.77,-14.65,0,*46
1504267426.78,37916,25.31,74194.5,23.39,-11.33,-14.23,0,*48
1504267428.04,37917,25.31,74192.8,23.39,-11.97,-14.83,0,*4D
1504267429.28,37918,25.31,74190.8,23.37,-11.45,-14.33,0,*48
1504267430.48,37919,25.31,74194.0,23.39,-11.41,-14.37,0,*47
1504267431.71,37920,25.31,74192.0,23.39,-11.15,-14.01,0,*49
1504267432.96,37921,25.38,74196.5,23.39,-11.59,-14.43,0,*46
1504267434.17,37922,25.31,74194.0,23.39,-10.97,-13.69,0,*49
1504267435.4,37923,25.31,74192.0,23.39,-11.29,-14.23,0,*45
1504267436.63,37924,25.31,74194.5,23.39,-10.71,-13.55,0,*48
1504267437.89,37925,25.31,74192.0,23.41,-10.41,-13.23,0,*44
1504267439.11,37926,25.31,74192.8,23.43,-11.15,-13.97,0,*4A
1504267440.35,37927,25.31,74194.0,23.41,-12.21,-15.07,0,*42
1504267441.6,37928,25.31,74190.8,23.41,-11.51,-14.33,0,*4F
1504267442.85,37929,25.31,74194.0,23.41,-12.61,-15.53,0,*49
1504267444.08,37930,25.31,74194.3,23.41,-11.41,-14.33,0,*47
1504267445.33,37931,25.38,74194.8,23.41,-11.29,-14.11,0,*48
1504267446.55,37932,25.31,74192.3,23.43,-10.79,-13.65,0,*49
1504267447.81,37933,25.31,74188.8,23.41,-11.23,-13.97,0,*49
1504267449.06,37934,25.31,74192.5,23.41,-10.57,-13.33,0,*42
1504267450.31,37935,25.38,74192.0,23.41,-11.15,-13.83,0,*4F
1504267451.56,37936,25.31,74192.3,23.43,-11.37,-14.05,0,*47
1504267452.84,37937,25.31,74190.8,23.41,-12.53,-15.21,0,*42
1504267454.1,37938,25.38,74192.8,23.41,-11.67,-14.23,0,*4A
1504267455.33,37939,25.38,74194.5,23.43,-12.21,-14.79,0,*47
1504267456.55,37940,25.31,74192.0,23.43,-11.85,-14.23,0,*4B
1504267457.81,37941,25.38,74194.3,23.41,-12.11,-14.65,0,*44
1504267459.06,37942,25.38,74192.5,23.41,-11.77,-14.19,0,*4F
1504267460.28,37943,25.31,74190.0,23.41,-11.41,-13.69,0,*4B
1504267461.53,37944,25.38,74194.8,23.41,-11.67,-14.11,0,*40
1504267462.81,37945,25.38,74196.3,23.41,-11.67,-14.05,0,*44
1504267464.07,37946,25.31,74192.3,23.41,-11.93,-14.23,0,*48
1504267465.3,37947,25.38,74194.8,23.39,-11.89,-14.23,0,*4D
1504267466.58,37948,25.38,74192.8,23.41,-11.81,-13.97,0,*4D
1504267467.82,37949,25.38,74192.8,23.41,-11.55,-13.93,0,*41
1504267469.08,37950,25.31,74192.3,23.41,-11.01,-13.33,0,*42
1504267470.33,37951,25.38,74192.8,23.41,-11.55,-13.93,0,*48
1504267471.53,37952,25.38,74194.8,23.39,-11.41,-13.73,0,*4F
1504267472.78,37953,25.38,74192.5,23.41,-12.39,-14.55,0,*4E
1504267474.03,37954,25.38,74194.8,23.41,-12.11,-14.19,0,*4B
1504267475.32,37955,25.38,74192.5,23.41,-11.93,-14.05,0,*4E
1504267476.57,37956,25.38,74194.0,23.39,-12.65,-14.51,0,*49
1504267477.82,37957,25.38,74192.3,23.39,-12.11,-13.83,0,*43
1504267479.1,37958,25.31,74190.3,23.37,-12.35,-13.79,0,*41
1504267480.38,37959,25.38,74190.0,23.37,-11.93,-13.29,0,*4A
1504267481.63,37960,25.31,74188.5,23.37,-12.21,-13.19,0,*49
1504267482.87,37961,25.31,74190.8,23.31,-12.53,-13.51,0,*47
1504267484.12,37962,25.38,74190.0,23.31,-12.83,-13.61,0,*4A
1504267485.37,37963,25.31,74190.8,23.29,-12.43,-13.01,0,*48
1504267486.65,37964,25.38,74192.3,23.25,-11.73,-12.07,0,*44
1504267487.94,37965,25.31,74190.5,23.25,-10.67,-10.67,0,*45
1504267489.18,37966,25.31,74188.5,23.23,-9.61,-9.83,0,*4C
1504267490.38,37967,25.31,74186.8,23.23,-8.63,-8.89,0,*45
1504267491.65,37968,25.38,74188.3,23.25,-7.91,-7.95,0,*4C
1504267492.89,37969,25.31,74186.5,23.25,-7.23,-7.35,0,*4E
1504267494.14,37970,25.38,74188.8,23.25,-7.23,-7.35,0,*46
1504267495.34,37971,25.38,74188.8,23.27,-6.01,-6.31,0,*41
1504267496.53,37972,25.38,74190.8,23.27,-4.57,-4.99,0,*43
1504267497.78,37973,25.38,74188.5,23.29,-3.71,-4.25,0,*48
1504267498.99,37974,25.38,74188.0,23.33,-2.15,-2.91,0,*4E
1504267500.21,37975,25.38,74188.8,23.37,-2.15,-3.11,0,*42
1504267501.43,37976,25.38,74190.0,23.41,-1.25,-2.35,0,*47
1504267502.64,37977,25.38,74188.0,23.47,-0.97,-2.19,0,*76
1504267503.86,37978,25.38,74190.5,23.49,-0.73,-2.11,0,*75
1504267505.09,37979,25.38,74190.3,23.55,-0.69,-1.91,0,*79
1504267506.27,37980,25.31,74186.5,23.57,-0.33,-1.59,0,*76
1504267507.51,37981,25.31,74188.8,23.63,-0.37,-1.43,0,*7F
1504267508.71,37982,25.38,74188.5,23.65,-0.07,-1.05,0,*4B
1504267509.93,37983,25.38,74188.0,23.69,-2.03,-3.07,0,*40
1504267511.14,37984,25.38,74190.5,23.69,-2.91,-3.67,0,*4A
1504267512.36,37985,25.31,74184.5,23.69,-3.63,-4.09,0,*48
1504267513.58,37986,25.38,74190.3,23.69,-5.19,-5.39,0,*42
1504267514.79,37987,25.38,74188.5,23.67,-5.51,-5.39,0,*41
1504267516.04,37988,25.38,74188.5,23.65,-5.23,-4.85,0,*4F
1504267517.28,37989,25.38,74186.0,23.63,-6.05,-5.27,0,*46
1504267518.49,37990,25.38,74188.5,23.63,-6.47,-5.47,0,*4E
1504267519.73,37991,25.38,74190.0,23.63,-5.73,-4.49,0,*44
1504267520.94,37992,25.38,74188.5,23.57,-5.89,-4.33,0,*48
1504267522.14,37993,25.38,74188.0,23.53,-6.47,-4.61,0,*4B
1504267523.34,37994,25.38,74188.8,23.53,-6.85,-4.65,0,*46
1504267524.53,37995,25.38,74186.8,23.53,-6.77,-4.41,0,*4C
1504267525.73,37996,25.38,74186.3,23.49,-6.69,-4.21,0,*4D
1504267526.92,37997,25.38,74190.3,23.47,-6.55,-3.91,0,*41
1504267528.14,37998,25.38,74186.8,23.45,-5.97,-3.27,0,*4C
1504267529.35,37999,25.38,74186.8,23.43,-5.69,-2.87,0,*41
1504267530.57,38000,25.38,74188.5,23.43,-4.65,-1.87,0,*49
1504267531.78,38001,25.38,74188.0,23.41,-4.05,-1.25,0,*44
1504267532.97,38002,25.38,74188.8,23.43,-3.15,-0.29,0,*7E
1504267534.17,38003,25.38,74188.5,23.43,-2.23,0.59,0,*51
1504267535.37,38004,25.38,74188.8,23.43,-2.35,0.47,0,*5E
1504267536.64,38005,25.38,74188.8,23.45,-1.47,1.37,0,*69
1504267537.83,38006,25.38,74186.5,23.47,-2.39,0.33,0,*57
1504267539.06,38007,25.38,74186.5,23.45,-2.43,0.51,0,*5D
1504267540.26,38008,25.38,74188.5,23.47,0.51,3.55,0,*7B
1504267541.46,38009,25.38,74190.5,23.49,1.93,4.85,0,*41
1504267542.67,38010,25.38,74188.8,23.51,1.41,4.15,0,*46
1504267543.87,38011,25.38,74190.3,23.57,1.47,4.33,0,*43
1504267545.07,38012,25.38,74190.3,23.61,0.79,3.55,0,*7E
1504267546.25,38013,25.38,74186.5,23.61,0.97,3.59,0,*73
1504267547.45,38014,25.38,74188.5,23.65,1.41,3.97,0,*48
1504267548.65,38015,25.38,74190.0,23.65,-0.41,1.89,0,*58
1504267549.84,38016,25.38,74190.0,23.65,0.01,2.13,0,*42
1504267551.03,38017,25.38,74188.5,23.65,0.87,2.91,0,*77
1504267552.29,38018,25.38,74190.5,23.67,0.87,2.59,0,*7E
1504267553.55,38019,25.38,74190.5,23.67,1.13,2.59,0,*43
1504267554.81,38020,25.38,74190.5,23.67,1.97,3.03,0,*4B
1504267556.05,38021,25.38,74190.5,23.69,2.17,2.89,0,*4C
1504267557.28,38022,25.38,74190.3,23.69,2.25,2.51,0,*4B
1504267558.52,38023,25.38,74190.0,23.69,3.11,3.11,0,*49
1504267559.75,38024,25.38,74188.5,23.73,3.11,2.69,0,*4B
1504267561.0,38025,25.38,74190.5,23.71,3.49,2.77,0,*4A
1504267562.23,38026,25.38,74190.0,23.75,4.07,2.85,0,*4D
1504267563.43,38027,25.38,74188.0,23.77,3.29,1.55,0,*4B
1504267564.65,38028,25.38,74184.8,23.79,3.63,1.43,0,*43
1504267565.82,38029,25.38,74190.5,23.83,3.55,1.01,0,*44
1504267567.05,38030,25.38,74184.5,23.79,3.11,0.09,0,*40
1504267568.29,38031,25.38,74188.3,23.83,2.43,-1.05,0,*62
1504267569.52,38032,25.38,74186.8,23.83,2.69,-1.13,0,*6E
1504267570.75,38033,25.38,74188.8,23.79,3.25,-0.85,0,*5D
1504267571.96,38034,25.38,74186.8,23.83,3.75,-0.49,0,*5A
1504267573.15,38035,25.38,74188.5,23.87,4.15,-0.53,0,*55
1504267574.38,38036,25.38,74184.8,23.89,4.15,-0.85,0,*53
1504267575.6,38037,25.38,74188.0,23.91,2.89,-2.23,0,*66
1504267576.78,38038,25.38,74190.0,23.95,2.35,-3.19,0,*62
1504267578.0,38039,25.38,74188.5,23.97,1.05,-4.53,0,*68
1504267579.24,38040,25.38,74190.0,23.97,-0.27,-6.01,0,*7F
1504267580.49,38041,25.38,74184.5,23.97,-0.11,-5.73,0,*7D
1504267581.72,38042,25.38,74190.5,23.97,0.25,-5.35,0,*56
1504267582.95,38043,25.38,74190.8,23.99,-1.05,-6.77,0,*42
1504267584.18,38044,25.38,74188.3,24.05,-1.63,-7.05,0,*43
1504267585.43,38045,25.38,74186.3,24.05,-1.91,-7.11,0,*4A
1504267586.69,38046,25.38,74186.8,24.01,-2.71,-7.69,0,*4F
1504267587.91,38047,25.38,74188.3,24.05,-1.79,-6.51,0,*4B
1504267589.12,38048,25.38,74186.5,24.09,-1.59,-6.09,0,*47
1504267590.31,38049,25.38,74188.5,24.11,-2.19,-6.47,0,*42
1504267591.56,38050,25.38,74186.5,24.13,-2.59,-6.97,0,*41
1504267592.76,38051,25.38,74186.8,24.13,-3.83,-8.21,0,*45
1504267593.96,38052,25.38,74184.5,24.13,-6.01,-10.05,0,*76
1504267595.16,38053,25.38,74186.5,24.13,-6.01,-9.75,0,*48
1504267596.38,38054,25.38,74188.3,24.11,-5.81,-9.01,0,*45
1504267597.6,38055,25.38,74186.3,24.11,-6.23,-9.05,0,*4B
1504267598.79,38056,25.38,74184.5,24.11,-6.51,-8.97,0,*47
1504267599.98,38057,25.38,74188.0,24.11,-6.31,-8.25,0,*49
1504267601.2,38058,25.38,74190.3,24.09,-6.81,-8.25,0,*44
1504267602.44,38059,25.38,74186.0,24.07,-6.63,-7.61,0,*48
1504267603.65,38060,25.38,74184.5,24.07,-6.47,-7.05,0,*46
1504267604.84,38061,25.38,74186.3,24.07,-6.55,-6.77,0,*40
1504267606.03,38062,25.38,74188.5,24.07,-6.89,-6.77,0,*42
1504267607.28,38063,25.38,74188.0,24.05,-6.05,-5.61,0,*41
1504267608.53,38064,25.38,74184.5,24.01,-5.15,-4.37,0,*42
1504267609.76,38065,25.38,74186.0,24.05,-4.37,-3.55,0,*45
1504267611.01,38066,25.38,74186.0,24.07,-3.51,-2.51,0,*46
1504267612.24,38067,25.38,74186.0,24.07,-3.91,-2.75,0,*4D
1504267613.43,38068,25.38,74184.0,24.07,-4.41,-3.27,0,*4E
1504267614.62,38069,25.38,74184.0,24.07,-4.05,-2.91,0,*43
1504267615.81,38070,25.38,74186.3,24.07,-2.91,-1.79,0,*45
1504267617.05,38071,25.38,74186.8,24.09,-3.03,-1.91,0,*46
1504267618.26,38072,25.38,74190.0,24.09,-2.39,-1.29,0,*4E
1504267619.51,38073,25.38,74190.0,24.09,-2.15,-1.47,0,*49
1504267620.72,38074,25.38,74186.3,24.09,-2.91,-2.39,0,*48
1504267621.94,38075,25.38,74186.8,24.09,-2.99,-2.43,0,*4C
1504267623.16,38076,25.38,74186.5,24.07,-3.15,-2.63,0,*46
1504267624.4,38077,25.38,74184.0,24.09,-3.87,-3.51,0,*42
1504267625.6,38078,25.38,74186.3,24.07,-3.31,-3.11,0,*4A
1504267626.78,38079,25.38,74186.5,24.07,-3.19,-3.19,0,*49
1504267627.97,38080,25.38,74184.0,24.07,-2.91,-2.87,0,*48
1504267629.19,38081,25.38,74186.5,24.09,-2.35,-2.39,0,*4C
1504267630.41,38082,25.38,74184.3,24.09,-3.91,-3.91,0,*43
1504267631.64,38083,25.38,74184.0,24.09,-4.33,-4.41,0,*47
1504267632.9,38084,25.38,74184.3,24.09,-4.81,-4.69,0,*43
1504267634.14,38085,25.38,74186.0,24.09,-4.93,-4.41,0,*4B
1504267635.38,38086,25.38,74184.0,24.09,-6.39,-5.69,0,*41
1504267636.62,38087,25.38,74188.8,24.05,-8.25,-6.93,0,*49
1504267637.9,38088,25.38,74186.8,24.01,-9.15,-7.35,0,*4D
1504267639.13,38089,25.38,74184.0,23.97,-9.05,-6.81,0,*4B
1504267640.35,38090,25.38,74186.5,23.95,-9.67,-6.93,0,*46
1504267641.54,38091,25.38,74186.5,23.91,-9.27,-6.09,0,*44
1504267642.82,38092,25.38,74184.8,23.89,-8.51,-4.93,0,*4F
1504267644.03,38093,25.38,74186.5,23.85,-7.49,-3.75,0,*4B
1504267645.25,38094,25.38,74184.3,23.85,-8.33,-4.53,0,*4D
1504267646.49,38095,25.38,74186.3,23.83,-7.91,-4.01,0,*4A
1504267647.71,38096,25.38,74184.3,23.79,-6.77,-3.03,0,*40
1504267648.9,38097,25.38,74184.5,23.77,-6.55,-3.07,0,*4B
1504267650.12,38098,25.38,74184.0,23.71,-5.47,-2.15,0,*40
1504267651.33,38099,25.38,74184.0,23.73,-4.13,-1.05,0,*41
1504267652.55,38100,25.38,74186.5,23.73,-3.83,-0.93,0,*70
1504267653.79,38101,25.38,74186.0,23.71,-2.59,0.25,0,*55
1504267655.05,38102,25.38,74184.0,23.71,-1.35,1.33,0,*69
1504267656.24,38103,25.38,74184.3,23.73,-2.95,-0.29,0,*74
1504267657.47,38104,25.38,74186.8,23.71,-2.27,0.37,0,*5A
1504267658.68,38105,25.38,74180.3,23.69,-0.77,1.67,0,*51
1504267659.9,38106,25.38,74182.0,23.69,0.29,2.73,0,*72
1504267661.12,38107,25.38,74180.3,23.69,0.59,3.19,0,*79
1504267662.38,38108,25.38,74180.0,23.71,1.09,3.71,0,*45
1504267663.58,38109,25.38,74184.8,23.73,1.47,4.19,0,*45
1504267664.8,38110,25.38,74180.5,23.75,1.51,4.19,0,*4C
1504267666.0,38111,25.38,74186.5,23.77,1.51,3.89,0,*41
1504267667.22,38112,25.38,74184.3,23.77,0.21,2.69,0,*7B
1504267668.41,38113,25.38,74182.5,23.77,-0.69,1.79,0,*59
1504267669.63,38114,25.38,74182.0,23.79,-0.23,2.31,0,*51
1504267670.81,38115,25.38,74186.5,23.77,-1.29,1.01,0,*65
1504267672.02,38116,25.38,74184.0,23.75,-2.79,-0.45,0,*7E
1504267673.28,38117,25.38,74182.0,23.75,-2.55,-0.23,0,*71
1504267674.52,38118,25.38,74186.3,23.71,-3.39,-1.09,0,*48
1504267675.75,38119,25.38,74182.0,23.71,-4.37,-1.95,0,*45
1504267677.01,38120,25.38,74184.0,23.67,-5.11,-2.47,0,*41
1504267678.26,38121,25.38,74182.3,23.67,-5.55,-2.59,0,*4F
1504267679.45,38122,25.38,74180.5,23.61,-5.47,-2.23,0,*44
1504267680.66,38123,25.38,74184.3,23.57,-4.99,-1.43,0,*47
1504267681.87,38124,25.38,74184.8,23.53,-4.61,-0.85,0,*78
1504267683.09,38125,25.38,74182.5,23.53,-4.05,-0.27,0,*73
1504267684.28,38126,25.38,74184.3,23.49,-3.91,0.05,0,*6C
1504267685.48,38127,25.38,74182.8,23.49,-3.67,0.09,0,*68
1504267686.72,38128,25.38,74186.0,23.45,-4.41,-0.97,0,*72
1504267687.94,38129,25.38,74182.8,23.41,-2.91,0.55,0,*5F
1504267689.18,38130,25.38,74184.3,23.41,-3.15,-0.27,0,*72
1504267690.4,38131,25.38,74186.0,23.33,-3.11,-0.73,0,*73
1504267691.63,38132,25.38,74188.3,23.31,-3.27,-1.47,0,*41
1504267692.82,38133,25.38,74182.0,23.27,-1.67,-0.77,0,*73
1504267694.01,38134,25.38,74182.5,23.23,-1.25,-1.17,0,*41
1504267695.2,38135,25.38,74182.5,23.23,-0.61,-1.71,0,*71
1504267696.41,38136,25.38,74180.3,23.23,-0.03,-1.91,0,*48
1504267697.68,38137,25.38,74180.8,23.21,0.91,-2.07,0,*51
1504267698.91,38138,25.38,74182.3,23.21,0.09,-3.55,0,*69
1504267700.14,38139,25.38,74180.0,23.21,0.17,-4.29,0,*5B
1504267701.35,38140,25.38,74184.5,23.19,0.83,-4.05,0,*5D
1504267702.59,38141,25.38,74184.8,23.21,1.97,-2.79,0,*6E